User: anonymous   Login
Location: �clusier
(49.9361°N, 2.7869°E)
Time: 17:00:33
(UTC+00:00)
Language:

ALOS 2 - Orbit

View from above orbital plane
View from above orbital plane
View from above satellite
View from above satellite

Ground track
Ground track

The orbit data is extracted from the following two-line orbital elements,

1 39766U 14029A   21269.09568472  .00000064  00000-0  15488-4 0  9998
2 39766  97.9223   5.0174 0001438  89.1277 271.0072 14.79472353396543
Epoch (UTC): 26 September 2021 02:17:47
Eccentricity: 0.0001438
inclination: 97.9223°
perigee height: 630 km
apogee height: 632 km
right ascension of ascending node: 5.0174°
argument of perigee: 89.1277°
revolutions per day: 14.79472353
mean anomaly at epoch: 271.0072°
orbit number at epoch: 39654

The dashed part of the orbit path shows where the satellite is in the earth's shadow,  

DLR